CZ-2F R/B (49327 NORAD) Tracking and Keplerian Element Data

This shows tracking and keplerian element data for the satellite.

Feedback or suggestion? Click here.




ElementValue
Catalog49327
NameCZ-2F R/B
Epoch Orbit264
Epoch Day305.03169954
Epoch Year2021
RAAN160.708
Inclination41.4576
Eccentricity0.0035649
Argument of Perigee258.3251
Mean Anonmoly224.6188
Mean Motion16.36685175
Decay Rate0.05099801
L11 49327U 21092B 21305.03169954 .05099801 80002-5 35354-3 0 9997
L22 49327 41.4576 160.7080 0035649 258.3251 224.6188 16.36685175 2640

Live tracking and technical data element details for CZ-2F R/B (NORAD 49327). CZ-2F R/B can be tracked NOW for your location showing map with azimuth and elevation plus other details from your city location.

Track the satellite on the map from your city or location and see movement details for azimuth, elevation, latitude, longitude, range, height, and movement on the map or in text.







IsCatalogInMostPopularTable: catalog: 49327, numindb: 35
Update: records affected: 1



GetName: 49327 CZ-2F R/B

Hit Count: updated at: Sun, 22 May 2022 06:46:00 GMT